This demonstration page uses our WeatherBlox Daily Observations layout. Learn more.

Left ArrowRight Arrow

38.20091, -84.87328

Hourly Observations for July 25, 2022

Temp ( °F °C ) Dew Point ( °F °C ) Humidity (%) Winds ( mph kmh ) Pressure ( in mb ) Visibility ( mi km ) Precip ( " mm )
12:53 am 00:53 Partly Cloudy 79 26.1 74 23.3 85 85 SW 8 13 29.94 1014 10 16 0.01 0.25
1:53 am 01:53 Mostly Cloudy with Light Rain 78 25.6 75 23.9 90 90 WSW 5 7 29.94 1014 10 16 0.01 0.25
2:53 am 02:53 Clear with Light Rain 77 25 75 23.9 94 94 WSW 6 9 29.94 1014 8 13 0.02 0.51
3:53 am 03:53 Partly Cloudy with Light Rain 78 25.6 75 23.9 90 90 WSW 5 7 29.93 1013 6 10 0.05 1.27
4:53 am 04:53 Mostly Clear 76 24.4 74 23.3 94 94 W 6 9 29.92 1013 10 16 0.03 0.76
5:53 am 05:53 Clear 76 24.4 72 22.2 88 88 NW 3 6 29.95 1014 10 16 0.00 0.00
6:53 am 06:53 Partly Cloudy 75 23.9 72 22.2 90 90 Calm 29.96 1014 10 16 0.00 0.00
7:53 am 07:53 Mostly Sunny 76 24.4 72 22.2 88 88 Calm 29.97 1015 10 16 0.00 0.00
8:23 am 08:23 Mostly Cloudy 76 24.4 72 22.2 88 88 Calm 29.99 1016 10 16 0.00 0.00
8:53 am 08:53 Cloudy 76 24.4 72 22.2 88 88 Calm 30.00 1016 10 16 0.00 0.00
9:11 am 09:11 Cloudy 76 24.4 72 22.2 88 88 WSW 5 7 30.00 1016 10 16 0.00 0.00
9:53 am 09:53 Cloudy 78 25.6 72 22.2 82 82 Calm 30.00 1016 10 16 0.00 0.00
10:10 am 10:10 Cloudy 78 25.6 73 22.8 85 85 WSW 3 6 30.00 1016 10 16 0.00 0.00
10:31 am 10:31 Cloudy 78 25.6 72 22.2 82 82 W 3 6 30.00 1016 10 16 0.00 0.00
10:53 am 10:53 Cloudy 78 25.6 73 22.8 85 85 NW 3 6 30.00 1016 10 16 0.00 0.00
11:53 am 11:53 Cloudy 78 25.6 73 22.8 85 85 NNW 5 7 30.03 1017 10 16 0.00 0.00
12:23 pm 12:23 Cloudy with Mist and Fog 76 24.4 73 22.8 91 91 NW 5 7 30.02 1017 4 6 0.00 0.00
12:33 pm 12:33 Cloudy with Mist and Fog 76 24.4 73 22.8 91 91 NW 3 6 30.02 1017 3 5 0.00 0.00
12:53 pm 12:53 Cloudy 76 24.4 73 22.8 91 91 W 3 6 30.02 1017 10 16 0.00 0.00
1:06 pm 13:06 Cloudy 77 25 73 22.8 88 88 W 3 6 30.03 1017 10 16 0.00 0.00
1:53 pm 13:53 Cloudy 79 26.1 74 23.3 85 85 Calm 30.02 1017 10 16 0.00 0.00
2:26 pm 14:26 Mostly Cloudy 80 26.7 73 22.8 79 79 Calm 29.99 1016 10 16 0.00 0.00
2:33 pm 14:33 Partly Cloudy 81 27.2 73 22.8 77 77 WSW 3 6 29.99 1016 10 16 0.00 0.00
2:53 pm 14:53 Mostly Sunny 80 26.7 73 22.8 79 79 Calm 30.00 1016 10 16 0.00 0.00
3:53 pm 15:53 Partly Cloudy 82 27.8 72 22.2 72 72 NW 7 11 29.99 1016 10 16 0.00 0.00
4:53 pm 16:53 Mostly Sunny 83 28.3 70 21.1 65 65 W 6 9 29.98 1015 10 16 0.00 0.00
5:53 pm 17:53 Sunny 82 27.8 69 20.6 65 65 NW 3 6 29.97 1015 10 16 0.00 0.00
6:53 pm 18:53 Sunny 81 27.2 70 21.1 69 69 Calm 29.99 1016 10 16 0.00 0.00
7:53 pm 19:53 Sunny 80 26.7 71 21.7 74 74 Calm 29.99 1016 10 16 0.00 0.00
8:53 pm 20:53 Sunny 77 25 72 22.2 85 85 Calm 29.99 1016 10 16 0.00 0.00
9:53 pm 21:53 Clear 77 25 72 22.2 85 85 Calm 30.01 1016 10 16 0.00 0.00
10:53 pm 22:53 Mostly Clear 76 24.4 73 22.8 91 91 Calm 30.04 1017 10 16 0.00 0.00
11:53 pm 23:53 Partly Cloudy 75 23.9 71 21.7 88 88 Calm 30.03 1017 10 16 0.00 0.00

Powered by AerisWeather